Location: Melbourne
(37.8170°S, 144.9670°E)
Time: 20:43:32
(UTC+10:00)

ISS - Visible Passes

Search period start: 29 July 2014 00:00
Search period end: 08 August 2014 00:00
Orbit: 411 x 419 km, 51.6° (Epoch: 29 July)

Date Brightness Start Highest point End Pass type
(mag) Time Alt. Az. Time Alt. Az. Time Alt. Az.
29 Jul -1.4 18:42:10 10° WSW 18:45:13 31° NW 18:48:13 10° NNE visible
30 Jul -2.6 17:53:09 10° WSW 17:56:29 61° NW 17:59:47 10° NE visible
31 Jul 0.3 18:43:13 10° WNW 18:43:57 11° NW 18:44:40 10° NW visible
07 Aug -0.1 06:30:10 10° N 06:32:20 16° NE 06:34:31 10° E visible
